SCP
0 0 0 0 0 0 0 0 0 0 0 0 0 0 0 -0 -0 -0 0 0 0 0 0 -0 -0 -0 -0 -0 -0 -0 0 0 0 0 0 0 0 0 0 0 0 0 0 0
0 0 0 0 0 0 0 0 0 0 0 0 0 0 0 -0 0 -0 0 0 0 0 -0 -0 -0 0 -0 -0 -0 -0 -0 0 0 0 0 0 0 0 0 0 0 0 0 0
0 0 0 0 -0 0 0 0 0 0 0 0 0 0 0 0 0 -0 -0 -0 0 -0 0 -0 -0 0 -0 0 0 -0 -0 0 0 0 0 0 0 0 0 0 0 0 0 0
0 0 0 -0 -0 0 0 0 0 0 0 0 0 0 0 -0 0 0 0 0 -0 -0 -0 0 -0 -0 0 -0 -0 -0 -0 -0 0 0 0 0 0 0 0 0 0 0 0 0
0 0 0 -0 -0 0 0 0 0 0 0 0 0 0 0 -0 -0 -0 -0 0 -0 -0 -0 -0 -0 -0 -0 0 0 -0 -0 -0 0 0 0 0 0 0 0 0 0 0 0 0
0 0 0 -0 0 0 0 0 0 0 0 0 0 0 -0 -0 -0 -0 0 -0 0 0 -0 -0 -0 -0 0 0 0 0 -0 -0 0 0 0 0 0 0 0 0 0 0 0 0
0 0 -0 -0 0 0 0 0 0 0 0 0 0 0 -0 -0 -0 -0 -0 0 -0 -0 -0 -0 0 0 -0 -0 -0 0 0 0 0 0 0 0 -0 0 0 0 0 0 0 0
0 0 -0 0 0 0 0 0 0 0 0 0 0 -0 -0 -0 -0 -0 -0 0 0 -0 -0 -0 -0 -0 0 -0 0 0 -0 0 0 0 0 0 0 0 0 0 0 0 0 -0
0 0 -0 0 0 0 0 0 0 0 0 0 0 0 0 -0 -0 -0 0 0 0 0 0 0 0 0 0 0 0 0 0 0 0 0 0 0 0 0 0 0 0 0 0 0
0 0 -0 0 0 0 0 0 0 0 0 -0 -0 0 0 0 0 0 0 -0 -0 0 0 0 0 0 0 0 0 0 0 0 0 0 0 0 0 0 0 0 0 0 0 0
0 -0 -0 -0 0 0 0 0 0 0 0 0 0 0 0 -0 0 0 0 -0 -0 0 0 0 0 0 0 0 0 0 0 0 0 0 0 0 0 0 0 0 0 0 0 0
0 -0 -0 -0 0 0 0 0 0 -0 0 0 0 -0 -0 -0 0 0 0 -0 -0 -0 0 0 0 0 0 -0 -0 0 0 0 0 0 0 0 0 -0 0 0 0 0 0 0
0 -0 -0 0 0 0 0 0 0 -0 0 0 -0 0 -0 0 0 0 0 0 0 0 -0 0 0 -0 0 -0 -0 -0 -0 -0 0 0 0 0 -0 -0 0 0 0 0 0 -0
-0 -0 -0 0 0 -0 0 0 -0 -0 0 0 -0 0 -0 0 0 0 0 0 0 0 0 0 -0 -0 -0 0 -0 0 -0 -0 -0 0 0 0 0 -0 0 0 0 0 0 0
-0 -0 -0 0 0 -0 0 0 -0 -0 -0 0 -0 -0 -0 0 0 0 0 0 0 0 0 0 0 0 -0 -0 -0 -0 0 0 -0 -0 0 0 0 0 0 0 0 0 0 0
-0 -0 -0 0 0 0 0 0 0 -0 -0 -0 0 -0 0 0 0 0 0 0 0 0 0 0 0 0 0 0 0 0 0 0 0 0 -0 0 0 0 0 0 0 0 0 0
-0 -0 -0 0 0 0 0 0 0 -0 -0 -0 0 0 -0 -0 0 0 0 0 0 0 0 0 0 0 0 0 0 0 0 0 0 0 0 0 0 0 0 0 0 -0 -0 -0
-0 -0 -0 0 0 0 0 0 0 0 -0 0 -0 0 0 0 0 0 0 0 0 0 0 0 0 0 0 0 0 0 0 0 0 0 0 -0 0 -0 0 -0 0 0 0 0
-0 0 0 0 0 0 0 0 0 0 0 0 0 0 0 0 0 0 0 0 0 0 0 0 0 0 0 0 0 0 0 0 0 -0 0 0 -0 -0 -0 -0 0 0 0 0
0 0 0 0 0 0 0 0 -0 0 0 0 0 0 0 0 0 0 0 0 0 0 0 0 -0 0 0 0 0 0 -0 -0 -0 -0 -0 -0 -0 -0 -0 -0 -0 -0 -0 -0
0 0 0 0 0 0 0 0 0 -0 0 0 0 0 0 0 0 0 0 0 0 0 -0 -0 -0 0 0 0 0 -0 -0 -0 -0 -0 -0 -0 -0 -0 -0 -0 -0 -0 -0 -0
0 0 0 0 0 0 0 0 0 0 0 0 0 0 0 0 0 0 0 0 0 -0 0 -0 -0 0 -0 0 -0 -0 -0 -0 -0 -0 -0 -0 0 0 0 0 -0 0 0 0
0 0 0 0 0 0 0 0 0 0 0 0 0 0 0 0 0 0 0 -0 0 -0 -0 -0 -0 -0 -0 -0 -0 -0 -0 -0 0 0 0 0 0 0 0 0 0 0 0 0
0 0 0 0 0 0 0 0 0 0 0 0 0 0 0 0 0 0 0 -0 -0 -0 -0 0 0 0 0 0 -0 0 0 0 0 0 0 0 0 0 0 0 0 0 0 0
0 0 0 0 0 0 0 0 0 0 0 0 0 0 0 0 0 0 0 0 -0 -0 0 0 0 -0 -0 0 -0 0 0 0 0 0 0 0 0 0 0 0 0 0 0 0
0 0 0 0 0 0 0 0 0 0 0 0 0 0 0 0 0 0 0 0 0 0 0 0 0 0 0 0 0 0 0 0 0 0 0 0 0 0 0 0 0 0 0 0
0 0 0 0 0 0 0 0 0 0 0 0 0 0 0 0 0 0 0 0 0 0 0 0 0 0 0 -0 0 0 0 0 0 0 0 0 0 0 0 0 0 0 0 0
Wind_Speed_500mb
55 58 60 61 58 58 56 24 7 28 44 7 3 4 10 48 38 56 28 18 27 21 10 6 6 8 7 25 9 5 13 10 6 5 7 2 9 16 21 10 9 6 8 12
57 57 56 63 58 54 54 27 28 23 21 5 7 11 14 16 12 24 13 13 8 6 7 5 8 9 11 16 18 7 9 5 7 7 3 7 5 8 10 6 5 14 7 12
54 62 56 58 59 56 50 16 6 12 8 10 6 7 17 20 23 22 21 29 16 6 8 5 9 9 9 27 23 29 15 7 4 6 8 3 5 4 4 20 9 10 14 23
53 58 56 52 60 57 48 8 9 16 5 8 7 13 7 28 15 9 23 9 17 41 7 9 8 7 17 11 9 11 8 9 4 10 11 6 5 6 5 15 17 11 10 9
57 55 54 61 63 56 51 15 12 9 10 18 6 11 8 23 26 9 21 18 39 21 12 15 32 12 13 11 9 15 10 8 7 8 4 3 2 10 11 8 8 12 11 18
50 54 57 62 57 51 42 37 25 25 8 2 3 7 13 24 30 26 32 37 32 20 14 17 28 42 38 30 18 10 7 4 7 8 8 6 9 10 9 5 13 8 10 12
53 53 62 58 53 48 40 46 41 10 14 6 13 22 24 29 24 27 46 48 6 24 54 59 46 38 41 35 32 19 13 4 3 6 7 7 8 3 3 9 6 10 8 15
52 54 58 58 54 47 37 38 34 20 15 16 16 21 17 32 39 28 32 43 48 47 36 8 13 8 4 8 16 25 27 8 5 3 2 5 6 10 6 7 6 11 17 22
50 55 56 56 50 43 37 39 29 39 15 10 24 5 20 11 16 14 13 50 41 23 4 4 6 5 5 5 2 3 4 7 4 2 3 4 3 10 10 4 4 11 5 21
49 56 53 53 46 41 37 36 29 26 13 9 9 6 8 16 14 9 13 25 19 9 5 5 5 4 3 7 7 7 5 4 5 7 5 4 5 21 4 4 8 26 27 26
48 53 50 52 46 38 35 34 23 19 12 38 24 23 23 24 24 7 21 21 6 6 9 6 7 5 7 5 3 7 7 7 5 5 6 4 33 2 8 7 19 27 31 30
46 51 48 46 39 31 32 31 29 24 21 33 51 53 37 32 30 28 6 7 12 9 5 6 7 5 7 5 6 6 7 6 4 8 6 6 16 18 20 19 16 21 26 29
44 45 47 41 37 35 29 30 30 23 14 32 14 15 11 20 21 17 7 5 9 14 18 6 5 5 5 6 6 5 12 13 5 4 6 3 15 12 32 28 27 27 22 21
37 39 44 37 37 32 31 28 21 15 14 8 13 18 27 30 17 16 17 26 27 30 31 9 6 3 8 5 3 6 5 11 13 4 5 2 9 30 33 37 33 30 23 22
34 41 36 33 32 33 31 25 15 17 12 8 21 43 15 14 18 14 16 22 26 24 6 5 2 4 4 3 5 5 9 6 4 4 6 8 16 37 31 36 33 30 29 26
37 37 30 32 29 25 20 6 7 7 8 11 7 11 11 13 21 14 18 15 10 9 8 5 9 4 5 4 3 4 10 13 9 8 33 26 21 20 29 29 27 24 23 24
38 32 31 32 22 20 13 8 12 19 13 7 9 11 6 13 11 6 6 6 7 6 7 5 7 5 7 4 3 6 18 12 5 18 16 1 21 20 28 23 20 20 19 21
32 36 34 33 22 22 21 21 20 19 11 9 2 8 7 12 7 5 8 5 6 3 5 8 4 10 6 4 2 11 17 7 2 11 12 9 12 12 17 20 21 24 29 27
31 32 26 22 7 11 12 17 20 18 14 5 2 5 7 15 5 6 5 5 4 7 3 1 6 4 2 8 4 6 12 6 10 5 7 10 20 24 27 28 29 32 32 30
22 18 6 5 7 12 13 7 5 7 10 11 5 5 5 13 11 5 7 5 0 2 5 15 5 5 3 3 1 1 3 5 8 11 11 20 26 27 30 32 31 30 30 29
8 2 4 8 14 4 5 5 6 3 4 9 5 8 4 6 2 4 6 2 2 4 7 5 5 5 5 8 4 1 4 13 20 24 24 23 23 24 25 26 28 28 29 30
7 8 15 9 4 6 4 5 4 3 7 6 6 5 6 4 4 1 4 3 5 7 8 6 5 6 16 14 10 16 22 25 25 24 21 19 19 19 20 21 22 24 26 27
11 7 6 7 6 3 10 9 7 3 9 11 8 3 4 4 3 6 5 4 8 3 6 6 8 12 25 21 25 30 30 25 19 14 10 10 11 12 14 18 23 29 32 36
14 13 9 9 6 10 10 9 9 10 11 17 9 3 2 1 4 2 5 5 5 6 4 10 6 36 36 34 37 36 30 20 11 4 4 5 7 12 18 25 30 35 40 45
12 11 11 12 14 7 5 11 8 11 15 14 7 1 1 3 3 2 5 10 7 10 9 6 20 47 45 45 42 35 24 13 5 2 5 6 11 18 24 31 37 43 50 55
10 13 5 7 2 5 10 16 10 15 14 13 5 4 4 5 5 3 11 9 10 7 6 12 33 47 45 46 40 29 17 7 1 7 10 13 18 24 31 36 43 50 55 60
11 10 26 16 6 6 11 17 15 25 19 4 5 5 11 3 4 6 8 9 7 8 14 16 43 44 46 43 35 24 12 2 7 14 17 20 25 32 40 47 52 56 56 57
Wind_Direction_500mb
325 332 322 330 334 336 334 331 295 308 307 343 283 228 215 303 295 304 287 266 267 260 265 264 268 270 251 333 325 314 210 271 298 287 288 34 200 200 183 186 218 215 170 267
330 330 325 328 333 338 331 307 289 297 293 259 279 291 280 276 297 311 298 281 290 256 291 296 243 274 291 334 343 303 333 328 301 307 324 31 230 208 200 86 82 202 155 264
333 323 331 324 331 335 329 316 295 292 233 255 231 292 299 311 296 287 291 294 283 297 306 288 282 280 297 329 299 319 279 233 306 308 295 193 302 305 242 215 233 210 220 268
327 329 329 323 325 331 327 266 243 241 277 273 234 297 265 299 316 268 297 306 334 322 296 301 288 290 314 297 309 357 44 316 246 282 257 242 229 249 268 246 257 248 250 222
325 328 325 327 329 330 314 275 273 268 266 276 253 283 275 294 318 286 308 314 313 305 291 257 295 297 302 268 335 5 339 290 339 287 43 156 247 347 314 300 318 270 243 275
325 323 326 331 330 333 314 312 296 250 237 262 71 243 286 299 307 297 294 304 310 304 260 265 264 271 264 260 286 288 260 257 340 280 333 348 41 330 340 23 30 322 16 346
324 325 330 332 333 333 317 312 318 316 286 202 262 285 288 289 296 290 299 302 249 290 311 307 286 262 256 254 251 230 264 4 286 278 346 33 234 126 323 80 51 15 319 315
323 327 333 329 332 331 324 319 312 282 270 224 275 262 280 302 301 292 288 296 306 304 312 286 327 326 335 254 212 210 218 220 286 103 221 124 36 3 6 356 343 11 342 337
321 327 329 332 335 332 326 324 317 298 265 228 249 261 276 282 304 289 269 312 319 313 268 255 263 281 264 310 66 125 182 207 247 355 96 45 255 315 209 228 354 358 340 345
319 326 331 335 332 330 327 328 328 331 305 287 281 222 276 292 280 290 303 333 325 353 298 272 270 309 265 14 39 337 344 25 216 253 92 357 304 315 177 32 307 328 343 338
318 327 330 333 332 329 324 324 320 318 285 293 280 276 276 281 289 285 310 333 339 326 355 327 346 319 15 48 16 353 21 329 14 15 72 17 343 11 56 310 326 323 337 342
318 327 328 331 334 334 322 321 320 306 272 271 295 295 294 282 284 281 287 272 290 329 334 350 313 317 347 9 10 358 42 4 352 29 60 70 62 72 28 16 330 337 330 338
312 321 324 321 328 336 320 316 311 310 293 303 294 309 318 306 289 280 277 271 324 306 315 302 285 309 334 359 25 331 358 13 29 128 40 101 67 51 24 17 3 352 349 342
312 317 319 314 316 324 321 308 310 303 296 278 289 299 312 314 304 286 265 276 296 300 291 233 256 322 5 26 70 52 339 335 334 51 43 24 86 20 359 360 0 2 8 0
310 317 324 310 314 323 312 299 276 278 277 281 290 299 298 304 320 297 274 287 293 291 284 258 313 338 354 65 58 29 356 356 4 294 49 308 302 335 343 349 353 359 0 6
308 306 310 307 314 314 314 293 215 339 299 295 302 301 284 299 317 285 284 290 304 265 291 293 314 294 314 91 119 97 0 339 296 299 312 312 326 300 343 356 357 5 7 9
316 310 300 300 286 279 279 264 290 312 315 268 298 312 280 309 313 317 312 329 300 288 294 319 315 318 18 78 106 343 346 342 98 1 6 44 352 337 353 6 19 20 25 23
303 301 300 296 276 246 237 262 270 292 289 249 231 273 332 348 323 338 319 288 278 346 320 345 7 325 38 62 243 3 8 103 20 9 24 2 343 13 38 38 40 37 38 33
294 300 298 291 242 193 231 251 267 264 242 257 188 166 265 342 348 311 296 316 351 322 73 346 346 325 77 220 280 3 18 33 337 49 49 62 62 58 56 53 54 48 39 38
289 296 243 223 213 235 277 233 219 224 222 229 209 213 285 335 355 351 335 9 115 15 273 317 73 252 213 202 277 9 341 1 40 146 99 79 65 57 53 50 44 39 37 31
285 258 231 262 283 233 218 226 206 228 243 219 226 224 250 334 51 242 18 210 309 49 266 103 322 299 213 188 172 144 106 99 97 94 87 79 71 64 59 51 43 35 29 23
227 290 293 282 234 208 196 237 318 152 235 213 176 219 242 278 290 57 343 149 35 244 322 70 302 242 167 173 164 145 128 117 107 98 88 73 58 45 38 32 27 19 11 2
258 199 207 206 200 47 184 215 279 280 202 191 192 270 219 225 258 77 62 67 228 301 44 226 227 169 172 174 159 145 135 126 115 102 79 56 43 35 21 8 0 355 349 342
194 175 212 177 262 235 191 183 185 185 177 174 183 211 198 123 48 142 83 242 56 34 18 236 231 184 172 169 161 153 145 136 128 107 44 33 21 1 355 349 342 336 331 328
199 184 219 213 227 246 202 193 169 180 168 162 138 106 249 352 70 58 80 14 272 203 230 235 190 171 172 169 163 156 149 147 152 350 344 336 332 335 336 333 330 329 326 324
217 222 214 200 111 272 201 210 208 184 173 160 121 118 52 270 151 90 219 127 229 261 227 304 173 171 172 167 160 156 153 151 326 340 326 313 316 322 325 327 327 327 325 322
207 236 225 209 255 209 178 184 166 171 162 183 142 170 217 93 19 280 196 206 226 255 291 191 174 176 171 165 162 156 150 130 340 333 324 318 320 323 324 326 327 327 326 324
Wind_Speed_850mb
55 58 60 61 58 58 56 24 7 28 44 7 3 4 10 48 38 56 28 18 27 21 10 6 6 8 7 25 9 5 13 10 6 5 7 2 9 16 21 10 9 6 8 12
57 57 56 63 58 54 54 27 28 23 21 5 7 11 14 16 12 24 13 13 8 6 7 5 8 9 11 16 18 7 9 5 7 7 3 7 5 8 10 6 5 14 7 12
54 62 56 58 59 56 50 16 6 12 8 10 6 7 17 20 23 22 21 29 16 6 8 5 9 9 9 27 23 29 15 7 4 6 8 3 5 4 4 20 9 10 14 23
53 58 56 52 60 57 48 8 9 16 5 8 7 13 7 28 15 9 23 9 17 41 7 9 8 7 17 11 9 11 8 9 4 10 11 6 5 6 5 15 17 11 10 9
57 55 54 61 63 56 51 15 12 9 10 18 6 11 8 23 26 9 21 18 39 21 12 15 32 12 13 11 9 15 10 8 7 8 4 3 2 10 11 8 8 12 11 18
50 54 57 62 57 51 42 37 25 25 8 2 3 7 13 24 30 26 32 37 32 20 14 17 28 42 38 30 18 10 7 4 7 8 8 6 9 10 9 5 13 8 10 12
53 53 62 58 53 48 40 46 41 10 14 6 13 22 24 29 24 27 46 48 6 24 54 59 46 38 41 35 32 19 13 4 3 6 7 7 8 3 3 9 6 10 8 15
52 54 58 58 54 47 37 38 34 20 15 16 16 21 17 32 39 28 32 43 48 47 36 8 13 8 4 8 16 25 27 8 5 3 2 5 6 10 6 7 6 11 17 22
50 55 56 56 50 43 37 39 29 39 15 10 24 5 20 11 16 14 13 50 41 23 4 4 6 5 5 5 2 3 4 7 4 2 3 4 3 10 10 4 4 11 5 21
49 56 53 53 46 41 37 36 29 26 13 9 9 6 8 16 14 9 13 25 19 9 5 5 5 4 3 7 7 7 5 4 5 7 5 4 5 21 4 4 8 26 27 26
48 53 50 52 46 38 35 34 23 19 12 38 24 23 23 24 24 7 21 21 6 6 9 6 7 5 7 5 3 7 7 7 5 5 6 4 33 2 8 7 19 27 31 30
46 51 48 46 39 31 32 31 29 24 21 33 51 53 37 32 30 28 6 7 12 9 5 6 7 5 7 5 6 6 7 6 4 8 6 6 16 18 20 19 16 21 26 29
44 45 47 41 37 35 29 30 30 23 14 32 14 15 11 20 21 17 7 5 9 14 18 6 5 5 5 6 6 5 12 13 5 4 6 3 15 12 32 28 27 27 22 21
37 39 44 37 37 32 31 28 21 15 14 8 13 18 27 30 17 16 17 26 27 30 31 9 6 3 8 5 3 6 5 11 13 4 5 2 9 30 33 37 33 30 23 22
34 41 36 33 32 33 31 25 15 17 12 8 21 43 15 14 18 14 16 22 26 24 6 5 2 4 4 3 5 5 9 6 4 4 6 8 16 37 31 36 33 30 29 26
37 37 30 32 29 25 20 6 7 7 8 11 7 11 11 13 21 14 18 15 10 9 8 5 9 4 5 4 3 4 10 13 9 8 33 26 21 20 29 29 27 24 23 24
38 32 31 32 22 20 13 8 12 19 13 7 9 11 6 13 11 6 6 6 7 6 7 5 7 5 7 4 3 6 18 12 5 18 16 1 21 20 28 23 20 20 19 21
32 36 34 33 22 22 21 21 20 19 11 9 2 8 7 12 7 5 8 5 6 3 5 8 4 10 6 4 2 11 17 7 2 11 12 9 12 12 17 20 21 24 29 27
31 32 26 22 7 11 12 17 20 18 14 5 2 5 7 15 5 6 5 5 4 7 3 1 6 4 2 8 4 6 12 6 10 5 7 10 20 24 27 28 29 32 32 30
22 18 6 5 7 12 13 7 5 7 10 11 5 5 5 13 11 5 7 5 0 2 5 15 5 5 3 3 1 1 3 5 8 11 11 20 26 27 30 32 31 30 30 29
8 2 4 8 14 4 5 5 6 3 4 9 5 8 4 6 2 4 6 2 2 4 7 5 5 5 5 8 4 1 4 13 20 24 24 23 23 24 25 26 28 28 29 30
7 8 15 9 4 6 4 5 4 3 7 6 6 5 6 4 4 1 4 3 5 7 8 6 5 6 16 14 10 16 22 25 25 24 21 19 19 19 20 21 22 24 26 27
11 7 6 7 6 3 10 9 7 3 9 11 8 3 4 4 3 6 5 4 8 3 6 6 8 12 25 21 25 30 30 25 19 14 10 10 11 12 14 18 23 29 32 36
14 13 9 9 6 10 10 9 9 10 11 17 9 3 2 1 4 2 5 5 5 6 4 10 6 36 36 34 37 36 30 20 11 4 4 5 7 12 18 25 30 35 40 45
12 11 11 12 14 7 5 11 8 11 15 14 7 1 1 3 3 2 5 10 7 10 9 6 20 47 45 45 42 35 24 13 5 2 5 6 11 18 24 31 37 43 50 55
10 13 5 7 2 5 10 16 10 15 14 13 5 4 4 5 5 3 11 9 10 7 6 12 33 47 45 46 40 29 17 7 1 7 10 13 18 24 31 36 43 50 55 60
11 10 26 16 6 6 11 17 15 25 19 4 5 5 11 3 4 6 8 9 7 8 14 16 43 44 46 43 35 24 12 2 7 14 17 20 25 32 40 47 52 56 56 57
Wind_Direction_850mb
325 332 322 330 334 336 334 331 295 308 307 343 283 228 215 303 295 304 287 266 267 260 265 264 268 270 251 333 325 314 210 271 298 287 288 34 200 200 183 186 218 215 170 267
330 330 325 328 333 338 331 307 289 297 293 259 279 291 280 276 297 311 298 281 290 256 291 296 243 274 291 334 343 303 333 328 301 307 324 31 230 208 200 86 82 202 155 264
333 323 331 324 331 335 329 316 295 292 233 255 231 292 299 311 296 287 291 294 283 297 306 288 282 280 297 329 299 319 279 233 306 308 295 193 302 305 242 215 233 210 220 268
327 329 329 323 325 331 327 266 243 241 277 273 234 297 265 299 316 268 297 306 334 322 296 301 288 290 314 297 309 357 44 316 246 282 257 242 229 249 268 246 257 248 250 222
325 328 325 327 329 330 314 275 273 268 266 276 253 283 275 294 318 286 308 314 313 305 291 257 295 297 302 268 335 5 339 290 339 287 43 156 247 347 314 300 318 270 243 275
325 323 326 331 330 333 314 312 296 250 237 262 71 243 286 299 307 297 294 304 310 304 260 265 264 271 264 260 286 288 260 257 340 280 333 348 41 330 340 23 30 322 16 346
324 325 330 332 333 333 317 312 318 316 286 202 262 285 288 289 296 290 299 302 249 290 311 307 286 262 256 254 251 230 264 4 286 278 346 33 234 126 323 80 51 15 319 315
323 327 333 329 332 331 324 319 312 282 270 224 275 262 280 302 301 292 288 296 306 304 312 286 327 326 335 254 212 210 218 220 286 103 221 124 36 3 6 356 343 11 342 337
321 327 329 332 335 332 326 324 317 298 265 228 249 261 276 282 304 289 269 312 319 313 268 255 263 281 264 310 66 125 182 207 247 355 96 45 255 315 209 228 354 358 340 345
319 326 331 335 332 330 327 328 328 331 305 287 281 222 276 292 280 290 303 333 325 353 298 272 270 309 265 14 39 337 344 25 216 253 92 357 304 315 177 32 307 328 343 338
318 327 330 333 332 329 324 324 320 318 285 293 280 276 276 281 289 285 310 333 339 326 355 327 346 319 15 48 16 353 21 329 14 15 72 17 343 11 56 310 326 323 337 342
318 327 328 331 334 334 322 321 320 306 272 271 295 295 294 282 284 281 287 272 290 329 334 350 313 317 347 9 10 358 42 4 352 29 60 70 62 72 28 16 330 337 330 338
312 321 324 321 328 336 320 316 311 310 293 303 294 309 318 306 289 280 277 271 324 306 315 302 285 309 334 359 25 331 358 13 29 128 40 101 67 51 24 17 3 352 349 342
312 317 319 314 316 324 321 308 310 303 296 278 289 299 312 314 304 286 265 276 296 300 291 233 256 322 5 26 70 52 339 335 334 51 43 24 86 20 359 360 0 2 8 0
310 317 324 310 314 323 312 299 276 278 277 281 290 299 298 304 320 297 274 287 293 291 284 258 313 338 354 65 58 29 356 356 4 294 49 308 302 335 343 349 353 359 0 6
308 306 310 307 314 314 314 293 215 339 299 295 302 301 284 299 317 285 284 290 304 265 291 293 314 294 314 91 119 97 0 339 296 299 312 312 326 300 343 356 357 5 7 9
316 310 300 300 286 279 279 264 290 312 315 268 298 312 280 309 313 317 312 329 300 288 294 319 315 318 18 78 106 343 346 342 98 1 6 44 352 337 353 6 19 20 25 23
303 301 300 296 276 246 237 262 270 292 289 249 231 273 332 348 323 338 319 288 278 346 320 345 7 325 38 62 243 3 8 103 20 9 24 2 343 13 38 38 40 37 38 33
294 300 298 291 242 193 231 251 267 264 242 257 188 166 265 342 348 311 296 316 351 322 73 346 346 325 77 220 280 3 18 33 337 49 49 62 62 58 56 53 54 48 39 38
289 296 243 223 213 235 277 233 219 224 222 229 209 213 285 335 355 351 335 9 115 15 273 317 73 252 213 202 277 9 341 1 40 146 99 79 65 57 53 50 44 39 37 31
285 258 231 262 283 233 218 226 206 228 243 219 226 224 250 334 51 242 18 210 309 49 266 103 322 299 213 188 172 144 106 99 97 94 87 79 71 64 59 51 43 35 29 23
227 290 293 282 234 208 196 237 318 152 235 213 176 219 242 278 290 57 343 149 35 244 322 70 302 242 167 173 164 145 128 117 107 98 88 73 58 45 38 32 27 19 11 2
258 199 207 206 200 47 184 215 279 280 202 191 192 270 219 225 258 77 62 67 228 301 44 226 227 169 172 174 159 145 135 126 115 102 79 56 43 35 21 8 0 355 349 342
194 175 212 177 262 235 191 183 185 185 177 174 183 211 198 123 48 142 83 242 56 34 18 236 231 184 172 169 161 153 145 136 128 107 44 33 21 1 355 349 342 336 331 328
199 184 219 213 227 246 202 193 169 180 168 162 138 106 249 352 70 58 80 14 272 203 230 235 190 171 172 169 163 156 149 147 152 350 344 336 332 335 336 333 330 329 326 324
217 222 214 200 111 272 201 210 208 184 173 160 121 118 52 270 151 90 219 127 229 261 227 304 173 171 172 167 160 156 153 151 326 340 326 313 316 322 325 327 327 327 325 322
207 236 225 209 255 209 178 184 166 171 162 183 142 170 217 93 19 280 196 206 226 255 291 191 174 176 171 165 162 156 150 130 340 333 324 318 320 323 324 326 327 327 326 324